Nenana, AK

12:11 AM AKST en Enero 24, 2019 (GMT -0900)
Nenana Municipal

Tiempo Historia de PANN - Enero, 2019

Change the Weather History Date:

Viernes, Enero 11, 2019

  Actual Average Record
Temperature  
Temperatura media 1 ° F -  
Temperatura máxima 44 ° F -1 ° F 53 ° F (1981)
Temperatura mínima -42 ° F -21 ° F -50 ° F (2005)
Degree Days  
Grados día de calefacción 64    
Moisture  
Punto de rocío -19 ° F    
Average Humidity 79    
Maximum Humidity 100    
Minimum Humidity 73    
Precipitación  
Precipitación 0.01 pul - - ()
Presión al nivel del mar  
Presión al nivel del mar 29.90 pul    
Viento  
Velocidad del viento 2 mph (ENE)    
Velocidad máxima del viento 13 mph    
Max Gust Speed -    
Visibilidad 5 Millas    
Eventos Lluvia , Nieve    
Averages and records for this station are not official NWS values.
T = Trace of Precipitation, MM = Missing Value Source: NWS Daily Summary

Daily Weather History Graph

Daily Weather History Graph

Search for Another Location

Airport or City:

Astronomía

Jan. 11, 2019 Salida Puesta
Hora real 10:37 AM AKST 3:31 PM AKST
Crepúsculo civil 9:25 AM AKST 4:43 PM AKST
Crepúsculo náutico 8:18 AM AKST 5:50 PM AKST
Crepúsculo astronómico 7:19 AM AKST 6:50 PM AKST
Luna 12:13 PM AKST (1/11) 10:58 PM AKST (1/11)
Horas de luz 7h 18m
Horas de luz
4h 54m
Creciente, 27% of the Moon is Illuminated
Ene 11
Creciente
Ene 13
Cuarto creciente
Ene 20
Luna llena
Ene 27
Cuarto menguante
Feb 4
Nueva

Hourly Weather History & Observations

Hora (AKST) Temp. Vientos helados Punto de rocío Humedad Presión Visibilidad Wind Dir Velocidad del viento Velocidad de ráfagas Precip Eventos Condiciones
12:53 AM -26.0 ° F - -31.0 ° F 77% 29.91 pul 3.0 mi Sin viento Sin viento - 0.00 pul Nieve Débil nevada
1:53 AM -26.0 ° F - -32.1 ° F 73% 29.89 pul 8.0 mi Sin viento Sin viento - 0.00 pul   Nublado
2:53 AM -25.1 ° F -36.5 ° F -31.0 ° F 74% 29.90 pul 4.0 mi ONO 3.5 mph - 0.00 pul Nieve Débil nevada
3:53 AM -24.0 ° F - -29.9 ° F 74% 29.89 pul 3.0 mi Sin viento Sin viento - 0.00 pul Nieve Débil nevada
4:16 AM -24.0 ° F - -29.0 ° F 77% 29.83 pul 2.5 mi Sin viento Sin viento - 0.00 pul Nieve Débil nevada
4:35 AM -24.0 ° F - -29.0 ° F 77% 29.82 pul 1.5 mi Sin viento Sin viento - 0.00 pul Nieve Débil nevada
4:53 AM -24.0 ° F - -29.0 ° F 77% 29.88 pul 2.0 mi Sin viento Sin viento - 0.00 pul Nieve Débil nevada
4:57 AM -24.0 ° F -35.2 ° F -29.0 ° F 77% 29.82 pul 1.8 mi Oeste 3.5 mph - 0.00 pul Nieve Débil nevada
5:53 AM -23.1 ° F - -29.0 ° F 74% 29.88 pul 1.8 mi Sin viento Sin viento - 0.01 pul Nieve Débil nevada
6:48 AM -23.8 ° F - -29.2 ° F 76% 29.82 pul 2.5 mi Sin viento Sin viento - 0.00 pul Nieve Débil nevada
6:53 AM -23.1 ° F - -29.0 ° F 74% 29.89 pul 2.5 mi Sin viento Sin viento - 0.00 pul Nieve Débil nevada
7:00 AM -23.1 ° F - -29.0 ° F 74% 29.82 pul 3.0 mi Sin viento Sin viento - 0.00 pul Nieve Débil nevada
7:08 AM -23.1 ° F - -29.0 ° F 74% 29.82 pul 2.5 mi Sin viento Sin viento - 0.00 pul Nieve Débil nevada
7:23 AM -23.1 ° F - -29.0 ° F 74% 29.82 pul 2.5 mi Sin viento Sin viento - 0.00 pul Nieve Débil nevada
7:38 AM -23.1 ° F - -29.0 ° F 74% 29.82 pul 3.0 mi Sin viento Sin viento - 0.00 pul   Bruma
7:45 AM -23.1 ° F - -29.0 ° F 74% 29.82 pul 3.0 mi Sin viento Sin viento - 0.00 pul   Bruma
7:53 AM -23.1 ° F -34.2 ° F -29.0 ° F 74% 29.88 pul 4.0 mi ONO 3.5 mph - 0.00 pul   Bruma
8:53 AM -23.1 ° F - -29.0 ° F 74% 29.90 pul 3.0 mi Sin viento Sin viento - N/A   Bruma
9:35 AM -24.0 ° F -35.2 ° F -29.9 ° F 74% 29.84 pul 5.0 mi NNO 3.5 mph - N/A   Bruma
9:53 AM -25.1 ° F - -31.0 ° F 74% 29.91 pul 6.0 mi Sin viento Sin viento - N/A   Bruma
10:19 AM -27.0 ° F - -33.0 ° F 73% 29.84 pul 10.0 mi Sin viento Sin viento - N/A   Nubes dispersas
10:53 AM -29.0 ° F - -35.0 ° F 73% 29.91 pul 10.0 mi Sin viento Sin viento - N/A   Despejado
11:53 AM -32.1 ° F - - N/A% 29.92 pul 10.0 mi Sin viento Sin viento - N/A   Despejado
12:53 PM -32.1 ° F - - N/A% 29.93 pul 10.0 mi Sin viento Sin viento - N/A   Despejado
1:53 PM -29.9 ° F - - N/A% 29.94 pul 10.0 mi Sin viento Sin viento - N/A   Despejado
2:53 PM -31.0 ° F - - N/A% 29.95 pul 10.0 mi Sin viento Sin viento - N/A   Despejado
3:53 PM -36.0 ° F - - N/A% 29.96 pul 10.0 mi Sin viento Sin viento - N/A   Despejado
4:53 PM -38.0 ° F -51.3 ° F - N/A% 29.98 pul 10.0 mi Este 3.5 mph - N/A   Despejado
5:53 PM -35.0 ° F -50.7 ° F - N/A% 29.99 pul 8.0 mi Este 4.6 mph - N/A   Despejado
6:53 PM -36.0 ° F -52.0 ° F - N/A% 30.00 pul 10.0 mi Este 4.6 mph - N/A   Despejado
7:53 PM -40.0 ° F - - N/A% 30.02 pul 10.0 mi Sin viento Sin viento - N/A   Despejado
8:01 PM -38.9 ° F - - N/A% 29.95 pul 2.5 mi Sin viento Sin viento - N/A   Parcialmente nublado
8:20 PM -42.0 ° F - - N/A% 29.96 pul 1.5 mi Sin viento Sin viento - N/A   Despejado
8:36 PM -42.0 ° F -55.8 ° F - N/A% 29.96 pul 2.5 mi ENE 3.5 mph - N/A   Despejado
8:53 PM -42.0 ° F -55.8 ° F - N/A% 30.04 pul 3.0 mi Este 3.5 mph - N/A   Despejado
9:53 PM -38.9 ° F -59.8 ° F - N/A% 30.05 pul 6.0 mi Este 6.9 mph - N/A   Bruma
10:53 PM -32.1 ° F -53.3 ° F - N/A% 30.06 pul 10.0 mi Este 8.1 mph - N/A   Despejado
11:46 PM -41.1 ° F - - N/A% 30.00 pul 1.8 mi Sin viento Sin viento - N/A   Despejado
11:53 PM -40.0 ° F - - N/A% 30.07 pul 2.0 mi Sin viento Sin viento - N/A   Despejado